This demonstration page uses our WeatherBlox Daily Observations layout. Learn more.

Left ArrowRight Arrow

40.92501, -98.34201

Hourly Observations for October 4, 2022

Temp ( °F °C ) Dew Point ( °F °C ) Humidity (%) Winds ( mph kmh ) Pressure ( in mb ) Visibility ( mi km ) Precip ( " mm )
12:53 am 00:53 Cloudy 65 18.3 41 5 41 41 WNW 5 7 30.12 1020 10 16 0.00 0.00
1:53 am 01:53 Cloudy with Light Rain 62 16.7 49 9.4 62 62 Calm 30.10 1019 10 16 0.01 0.13
2:53 am 02:53 Mostly Cloudy 63 17.2 43 6.1 48 48 SE 7 11 30.09 1019 10 16 0.01 0.13
3:53 am 03:53 Cloudy 62 16.7 43 6.1 50 50 SSE 6 9 30.07 1018 10 16 0.00 0.00
4:53 am 04:53 Partly Cloudy 60 15.6 44 6.7 55 55 SSE 6 9 30.07 1018 10 16 0.00 0.00
5:53 am 05:53 Mostly Clear 59 15 44 6.7 58 58 Calm 30.08 1019 10 16 0.00 0.00
6:53 am 06:53 Mostly Clear 57 13.9 45 7.2 64 64 Calm 30.08 1019 10 16 0.00 0.00
7:53 am 07:53 Cloudy 58 14.4 44 6.7 60 60 VRB 3 6 30.09 1019 10 16 0.00 0.00
8:53 am 08:53 Partly Cloudy 59 15 44 6.7 58 58 S 6 9 30.10 1019 10 16 0.00 0.00
9:53 am 09:53 Mostly Cloudy 62 16.7 44 6.7 52 52 S 7 11 30.11 1020 10 16 0.00 0.00
10:53 am 10:53 Mostly Cloudy 64 17.8 44 6.7 48 48 SSW 3 6 30.11 1020 10 16 0.00 0.00
11:53 am 11:53 Mostly Sunny 65 18.3 45 7.2 48 48 SW 6 9 30.11 1020 10 16 0.00 0.00
12:53 pm 12:53 Cloudy with Light Rain 60 15.6 53 11.7 78 78 W 5 7 30.12 1020 5 8 0.01 0.13
1:53 pm 13:53 Cloudy with Light Rain 60 15.6 56 13.3 86 86 Calm 30.11 1020 9 14 0.11 2.79
2:53 pm 14:53 Cloudy with Light Rain 62 16.7 57 13.9 84 84 Calm 30.08 1019 10 16 0.01 0.25
3:53 pm 15:53 Sunny 64 17.8 58 14.4 80 80 SSE 3 6 30.07 1018 10 16 0.01 0.13
4:53 pm 16:53 Sunny 68 20 57 13.9 68 68 SE 7 11 30.07 1018 10 16 0.00 0.00
5:53 pm 17:53 Sunny 68 20 56 13.3 65 65 S 5 7 30.06 1018 10 16 0.00 0.00
6:53 pm 18:53 Sunny 65 18.3 56 13.3 73 73 S 6 9 30.07 1018 10 16 0.00 0.00
7:53 pm 19:53 Clear 61 16.1 56 13.3 83 83 SSE 3 6 30.08 1019 10 16 0.00 0.00
8:53 pm 20:53 Clear 60 15.6 55 12.8 83 83 Calm 30.09 1019 10 16 0.00 0.00
9:53 pm 21:53 Clear 59 15 54 12.2 83 83 SSW 3 6 30.09 1019 10 16 0.00 0.00
10:53 pm 22:53 Clear 57 13.9 53 11.7 87 87 SW 7 11 30.10 1019 10 16 0.00 0.00
11:53 pm 23:53 Clear 56 13.3 53 11.7 90 90 NNW 5 7 30.10 1019 10 16 0.00 0.00

Powered by AerisWeather